Tracking 30922 objects as of 2-Jul-2025
HD Live streaming from Space Station
objects crossing your sky now

OPS 5712 (P/L 153)

Track OPS 5712 (P/L 153) now!
10-day predictions
OPS 5712 (P/L 153) is classified as:


NORAD ID: 2874
Int'l Code: 1967-053H
Perigee: 905.0 km
Apogee: 919.4 km
Inclination: 70.0 °
Period: 103.1 minutes
Semi major axis: 7283 km
RCS: 0.6915 m2 (medium)
Launch date: May 31, 1967
Source: United States (US)
Launch site: AIR FORCE WESTERN TEST RANGE (AFWTR)
Your satellite tracking list
Your tracking list is empty




NASA's NSSDC Master Catalog

Two Line Element Set (TLE):
1 02874U 67053H   25182.22897621  .00000011  00000-0  46532-4 0  9993
2 02874  69.9728 147.5120 0009919 286.3388  73.6627 13.96753581957774
Source of the keplerian elements: AFSPC